Zurück zum Katalog

BD-2-G7

AktivNavigationGEO
NORAD 41586·PAYLOAD·🇨🇳 China

Gestartet Jun 12, 2016 von Xichang Satellite Launch Center

Loading…

TLE

AktuellSource: Space-Track

Epoche: Sep 14, 2026, 14:19 UTC

1 41586U 16037A   26257.59702777 -.00000361  00000-0  00000-0 0  9998
2 41586   1.9371  69.6761 0005317 352.5731 256.7951  1.00274952  7781

Verfolge BD-2-G7 in Echtzeit mit AllMySat

Download on the App Store